Aeroporto :
LOGIN :

Iscrizione | Disclaimer

   EN    FR    IT 

 










Sommario :    VFR   VFR Marginale   IFR   IFR Intensivo   IFR Molto Intensivo
Visibilità : 
Base nubi : 
>= 8 km
>= 3000ft
5 / 8 km
1000 / 3000 ft
1500m / 5 km
500 / 1000 ft
800 / 1500m
200 / 500 ft
< 800m
< 200 ft
Simboli :   Temporali  Nebbia  Neve Forte  Precipitazioni Forti  Vento > 20 kt
SIGMETs :   Varie  Temporali  Ghiacco  Turbolenza  Onda orograficha  Ceneri Vulcaniche







- Altitudine del aeroporto : 1267 ft
- Codice IATA : CUF


LIMZ - Cuneo Levaldigi

ULTIMO METAR :
  • 191650Z 32007KT 3000 -SN OVC003 01/01 Q1007

METARs OBSOLETI :
  • 191550Z 32007KT 2000 RASN OVC003 01/01 Q1007
  • 191450Z 32006KT 2000 -RA BKN005 02/02 Q1007

TAF TAF LIMZ
Valido dal 19 a 12 ore il 20 a 12 ore UTC


191100Z 1912/2012 VRB05KT 9999 BKN040
BECMG 1914/1916 3000 DZ BKN010 OVC025
TEMPO 1916/2002 34012KT RASN
PROB40
TEMPO 1918/1924 1200 SN
BECMG 2002/2004 9999 NSW SCT025
Nessun NOTAM noto per questo aeroporto.



MetMap, La meteo Aeronautica in un colpo d'occhio ! - Copyright ORBIFLY Dicembre 2007 - Disclaimer

ORBIFLY MET'MAP TEAM :

Programmazione e sviluppo : Alexandra Zaïnal
Concezione e sviluppo : Baudouin d'Aumeries
Co-Programmazione e sviluppo : Marc-Olivier Méhu
Supporto tecnico e logistico : Manuel Goepfert
Aiuto per la traduzione : Arnaldo La Scala

Contatto : metmap@orbifly.com




FONTI E CREDITI :

   NOAA